National Weather Service United States Department of Commerce

Location Sky/Weather Temp.
(°F)
Dewpt.
(°F)
Humidity
(%)
Wind
(mph)
Pressure
(in)
Remarks
Washington National Light Rain 59 56 89 NE9 30.16F
Dulles Intl. Light Rain 57 55 93 N6 30.17S
BWI Airport Light Rain 60 56 86 E10 30.17S
Charlottesville, VA Light Rain 56 53 90 N7 30.16R Fog
Fredericksburg, VA Rain 59 59 100 N3 30.14R
Staunton, VA Drizzle 51 51 99 NE9 30.19R
Winchester, VA Cloudy 52 50 93 CALM 30.18S
Annapolis, MD Light Rain 60 58 92 E6 30.16F
Hagerstown Airport, MD Cloudy 56 53 90 NW3 30.19S
Baltimore/Martin, MD Light Rain 61 55 82 CALM 30.20R
Martinsburg, WV Cloudy 55 52 89 CALM 30.18S
Petersburg, WV Cloudy 55 55 100 CALM 30.20R
Patuxent River, MD Light Rain 62 58 86 NE13 30.14R
Cumberland, MD Cloudy 54 51 90 N3 30.24S
Oakland, MD Cloudy 45 45 100 SE17 30.16S
Hourly observations from: 600 AM EDT TUE MAY 24 2022
NZUS51 KLWX 241017
HRRLWX

HOURLY OBSERVATIONS AROUND THE LWX CWA
600 AM EDT TUE MAY 24 2022

Note: "FAIR" indicates few or no clouds below 12,000 feet
with no significant weather and/or obstructions to visibility.

 * =Non NWS site. Station does not report significant weather 
    and/or obstructions to visibility.

...DOWNTOWN AREAS...
  
CITY           SKY/WX    TMP DP  RH WIND       PRES   REMARKS
WASHINGTON NAT LGT RAIN  59  56  89 NE9       30.16F                  


...WASHINGTON SUBURBS...
  
CITY           SKY/WX    TMP DP  RH WIND       PRES   REMARKS
DULLES         LGT RAIN  57  55  93 N6        30.17S                  
MANASSAS*      LGT RAIN  57  56  96 N7        30.17S                  
LEESBURG*      CLOUDY    55  55 100 N7        30.20R                  
GAITHERSBURG*  LGT RAIN  56  55  97 CALM      30.19S                  
FT BELVOIR     LGT RAIN  59  57  94 CALM      30.16R                  
QUANTICO       CLOUDY    62  57  83 NE10      30.17R                  
ANDREWS AFB    DRIZZLE   57  57 100 NE8       30.14S                  
COLLEGE PARK*  MOCLDY    57  55  94 N3        30.16F                  

...CENTRAL VIRGINIA...
  
CITY           SKY/WX    TMP DP  RH WIND       PRES   REMARKS
CULPEPER*      RAIN      56  54  95 N3        30.18R                  
CHARLOTTESVILL LGT RAIN  56  53  90 N7        30.16R FOG              
WARRENTON*     RAIN      56  54  91 N3        30.16S                  
ORANGE*        RAIN      54  54 100 N8        30.16S                  
GORDONSVILLE*  CLOUDY    55  53  95 N8        30.15S                  
STAFFORD*      LGT RAIN  59  56  91 N3        30.20R                  
FREDERICKSBRG* RAIN      59  59 100 N3        30.14R                  
LOUISA*        RAIN      54  54 100 N3        30.16R FOG              
ASHLAND        HVY RAIN  59  58  96 CALM      30.15S FOG              
RICHMOND       HVY RAIN  59  58  96 N5        30.14R FOG              

...NORTHEAST/CENTRAL MARYLAND...
  
CITY           SKY/WX    TMP DP  RH WIND       PRES   REMARKS
BWI AIRPORT    LGT RAIN  60  56  86 E10       30.17S                  
ANNAPOLIS      LGT RAIN  60  58  92 E6        30.16F                  
MARTIN AIRPORT LGT RAIN  61  55  82 CALM      30.20R                  
ABERDEEN*      LGT RAIN  59  58  99 CALM      30.18                   
WESTMINSTER*   CLOUDY    57  55  94 NE3       30.19S                  
FREDERICK*     CLOUDY    55  55 100 NE3       30.19S                  
FORT MEADE*    CLOUDY    57  57 100 NE5       30.19F                  

...SOUTHERN MARYLAND...
  
CITY           SKY/WX    TMP DP  RH WIND       PRES   REMARKS
PATUXENT RIVER LGT RAIN  62  58  86 NE13      30.14R                  
ST MARYS CITY  RAIN      63  58  83 NE3       30.13R                  
LEONARDTOWN*   CLOUDY    61  59  94 E3        30.16S                  

...MARYLAND EASTERN SHORE...
  
CITY           SKY/WX    TMP DP  RH WIND       PRES   REMARKS
SALISBURY      LGT RAIN  59  56  89 NE7       30.16F                  
CAMBRIDGE*     CLOUDY    57  57 100 VRB7      30.15F                  
OCEAN CITY     LGT RAIN  59  57  93 NE12      30.16F                  
BAY BRIDGE AP* RAIN      59 N/A N/A NE6       30.17F                  
EASTON*        LGT RAIN  61  59  94 NE6       30.20F                  

...SHENANDOAH VALLEY...
  
CITY           SKY/WX    TMP DP  RH WIND       PRES   REMARKS
MARTINSBURG    CLOUDY    55  52  89 CALM      30.18S                  
HAGERSTOWN APT CLOUDY    56  53  90 NW3       30.19S                  
STAUNTON*      DRIZZLE   51  51  99 NE9       30.19R                  
WINCHESTER*    CLOUDY    52  50  93 CALM      30.18S                  
FRONT ROYAL*   CLOUDY    52  52 100 CALM      30.18S                  
LURAY*         CLOUDY    52  52 100 N7        30.19R                  
NEW MARKET*    CLOUDY    52  51  96 NE5       30.19R                  
WAYNESBORO*    CLOUDY    52  51  99 NE3       30.17R                  

...APPALACHIANS...
  
CITY           SKY/WX    TMP DP  RH WIND       PRES   REMARKS
PETERSBURG WV* CLOUDY    55  55 100 CALM      30.20R                  
CUMBERLAND*    CLOUDY    54  51  90 N3        30.24S                  
OAKLAND*       CLOUDY    45  45 100 SE17      30.16S                  
HOT SPRINGS*   SNOW      49  49 100 E12G18    30.15S VSB<1/4          
ELKINS         FOG       51  50  96 CALM      30.14R VSB 1/2          
BEDFORD PA*    CLOUDY    53  52  97 SE5       30.21R                  
JOHNSTOWN      CLOUDY    51  46  83 SE6       30.18R                  
ALTOONA        CLOUDY    55  48  77 S3        30.20S                  

...SOUTHERN PENNSYLVANIA/DELAWARE...
  
CITY           SKY/WX    TMP DP  RH WIND       PRES   REMARKS
YORK           CLOUDY    59  52  77 CALM      30.19F                  
WILMINGTON     MOCLDY    61  56  83 E5        30.20F                  

...MARINE OBSERVATIONS...
  
STATION/POSITION TIME  TEMP    WIND        PRES
                       AIR SEA DIR/SP/G
                 (UTC) (F)     (DEG/KT/KT) (MB)
THOMAS PT LIGHT  1000   60 68   50/ 11/ 13 1022.2F
TOLCHESTER       0924   58 71  110/  5/  7 1022.1
COVE POINT       0924   60      10/ 12/ 18 1020.9
GOOSES REEF      0948   57 68   80/ 16/ 19 1022.3F
BALT HARBOR      0924   61 70   90/  4/  5 1021.6
BALT KEY BRIDGE  0924   62     110/ 12/ 13 1022.0
WASH DC CHANNEL  0924   59 74   10/  3/  8 1021.2
DAHLGREN         0930   60 73   50/  1/  5 1019.7F
LEWISETTA        0930   63 72  100/ 16/ 18 1020.2S
SOLOMONS ISLAND  0924   61 69   70/ 10/ 14 1019.1
PINEY POINT      0930          100/  9/ 13   N/A
POTOMAC BUOY     0948   58 69   60/ 12/ 16   N/A
CAMBRIDGE PIER   0924   61 73   70/ 12/ 14 1021.1
BISHOPS HEAD     0924   62 72   50/ 14/ 19 1020.5
CHESAPEAKE CITY  0924   59 71  110/  2/  3 1022.1

  

 

For past hours' observations from around the NWS Sterling Area, please visit:
https://forecast.weather.gov/product.php?site=LWX&issuedby=LWX&product=RWR&format=CI&version=1